Flag for U.S.A. Weather past 2 weeks in New York, New York, U.S.A.

Now
47 °F

Clear.


Feels Like: 46 °F
Forecast: 42 / 64 °F
Wind: 3 mph from North

Location: New York City - Central Park


UV Index: 5 (Moderate)

Visibility: 10 mi


Pressure: 30.39 "Hg

Humidity: 44%

Dew point: 26 °F

Location of New YorkLocation

Historic Weather in New York

°F

New York temperature yesterday

Maximum temperature yesterday: 67 °F (at 3:51 PM)
Minimum temperature yesterday: 42 °F (at 12:51 AM)
Average temperature yesterday: 55 °F

Past Weeks' High & Low Weather Summary

 TemperatureHumidityPressure
High76 °F (Apr 13, 4:51 PM)93% (Apr 7, 8:51 PM)30.73 "Hg (Apr 7, 8:51 PM)
Low32 °F (Apr 16, 5:51 AM)17% (Apr 6, 4:51 PM)29.40 "Hg (Apr 8, 12:51 PM)
Average52 °F51%30.10 "Hg
* Reported Apr 5 7:51 PM — Apr 20 7:51 PM, New York, Weather by CustomWeather, © 2014

Note: Actual official high and low records may vary slightly from our data, if they occured in-between our weather recording intervals... More about our weather records

Advertising

Historic Weather Conditions — Data for Previous 24 hours

 ConditionsComfort  
Time TempWeatherWind HumidityBarometerVisibility
7:51 PM
Apr 20
49 °FSunny.6 mph39%30.39 "Hg10 mi
6:51 PM51 °FSunny.7 mph36%30.40 "Hg10 mi
5:51 PM52 °FSunny.6 mph38%30.42 "Hg10 mi
4:51 PM51 °FSunny.3 mph39%30.43 "Hg10 mi
3:51 PM53 °FSunny.3 mph37%30.43 "Hg10 mi
2:51 PM55 °FSunny.3 mph31%30.45 "Hg10 mi
1:51 PM54 °FSunny.9 mph31%30.46 "Hg10 mi
12:51 PM57 °FSunny.No wind26%30.47 "Hg10 mi
11:51 AM56 °FSunny.3 mph30%30.48 "Hg10 mi
10:51 AM53 °FSunny.8 mph35%30.49 "Hg10 mi
9:51 AM50 °FSunny.12 mph39%30.49 "Hg10 mi
8:51 AM49 °FSunny.9 mph41%30.48 "Hg10 mi
7:51 AM47 °FSunny.10 mph46%30.47 "Hg10 mi
6:51 AM46 °FClear.9 mph56%30.46 "Hg10 mi
5:51 AM47 °FClear.9 mph59%30.43 "Hg10 mi
4:51 AM48 °FClear.8 mph56%30.42 "Hg10 mi
3:51 AM49 °FClear.13 mph55%30.40 "Hg10 mi
2:51 AM51 °FClear.12 mph38%30.39 "Hg10 mi
1:51 AM52 °FClear.9 mph34%30.37 "Hg10 mi
12:51 AM53 °FClear.10 mph34%30.36 "Hg10 mi
11:51 PM
Apr 19
54 °FClear.7 mph33%30.34 "Hg10 mi
10:51 PM56 °FClear.12 mph27%30.34 "Hg10 mi
9:51 PM58 °FClear.10 mph24%30.32 "Hg10 mi
Weather by CustomWeather, © 2014

See weather overview